Content
SEND FEEDBACK

Daily
Averages
Monthly
Summary
United States of America

SAN FRANCISCO, CALIFORNIA


Home > North America > United States > California
Elevation: 128 feet     Latitude: 37 46N     Longitude: 122 26W

WEATHER
 
SELECT A DAY
Number of Records: 185,078;   Date Range: 1/1/95 - 9/20/14
 
SHARE

PRINT THIS DATA

[ ← Previous Day ]
WEATHER ALMANAC - MAY 25, 2013
[ Next Day → ]
[ °C ]   °F
Weather ElementAverageHighLow
Temperature53 °F60.1 °F (2:56 pm)50 °F (1:10 am)
Dewpoint44.1 °F48 °F (11:56 pm)42.8 °F (1:10 am)
Humidity72.2 %83 % (11:56 pm)53 % (2:56 pm)
Barometer30.02 in30.07 in (11:56 pm)29.99 in (2:13 am)
Wind Speed18.8 mph32.2 mph (10:56 pm)
Wind Gust41.4 mph (8:56 pm)
Weather ElementAverage
Visibility10 mi
Wind DirectionWSW (260 °)

Weather ElementTotal
Precipitation---
Heating Degree Days10 (Base 65)
Growing Degree Days5.1 (Base 50)
Averaged from 35 records on May 25, 2013
WEATHER CONDITIONS BREAKOUT
WIND DIRECTION BREAKOUT
WEATHER BY HOUR - MAY 25, 2013
[ °C ]   °F
Local TimeTemperatureDewpointHumidityBarometerVisibilityWind DirectionWind SpeedGust SpeedPrecipitationEventsConditions
1:10 AM50.0 °F42.8 °F76 %30.00 in10.0 miWSW (250°)19.6 mphMostly Cloudy
1:29 AM50.0 °F42.8 °F76 %30.00 in10.0 miWest (260°)17.3 mph25.3 mphScattered Clouds
1:52 AM50.0 °F42.8 °F76 %30.00 in10.0 miWest (260°)15.0 mphMostly Cloudy
1:56 AM50.0 °F43.0 °F77 %30.00 in10.0 miWest (270°)15.0 mphMostly Cloudy
2:13 AM50.0 °F42.8 °F76 %29.99 in10.0 miWest (260°)16.1 mphScattered Clouds
2:56 AM50.0 °F43.0 °F77 %30.00 in10.0 miWSW (250°)11.5 mph19.6 mphScattered Clouds
3:12 AM50.0 °F42.8 °F76 %30.00 in10.0 miWSW (250°)13.8 mph19.6 mphMostly Cloudy
3:56 AM50.0 °F43.0 °F77 %29.99 in10.0 miWest (260°)12.7 mphMostly Cloudy
4:18 AM50.0 °F42.8 °F76 %29.99 in10.0 miWest (260°)10.4 mphScattered Clouds
4:40 AM50.0 °F42.8 °F76 %29.99 in10.0 miWest (260°)10.4 mphMostly Cloudy
4:50 AM50.0 °F42.8 °F76 %29.99 in10.0 miWest (270°)11.5 mphScattered Clouds
4:56 AM50.0 °F43.0 °F77 %29.99 in10.0 miWest (260°)12.7 mphScattered Clouds
5:38 AM50.0 °F42.8 °F76 %30.00 in10.0 miWest (260°)11.5 mphMostly Cloudy
5:56 AM50.0 °F43.0 °F77 %30.01 in10.0 miWest (260°)11.5 mphOvercast
6:17 AM50.0 °F42.8 °F76 %30.01 in10.0 miWSW (240°)13.8 mphMostly Cloudy
6:56 AM50.0 °F43.0 °F77 %30.01 in10.0 miWSW (250°)8.1 mphMostly Cloudy
7:56 AM52.0 °F43.0 °F71 %30.02 in10.0 miWest (260°)18.4 mph25.3 mphMostly Cloudy
8:56 AM54.0 °F43.0 °F66 %30.03 in10.0 miWest (260°)19.6 mph25.3 mphMostly Cloudy
9:56 AM55.9 °F44.1 °F64 %30.04 in10.0 miWest (270°)21.9 mph28.8 mphMostly Cloudy
10:56 AM55.9 °F44.1 °F64 %30.04 in10.0 miWest (260°)18.4 mphScattered Clouds
11:56 AM57.9 °F43.0 °F58 %30.05 in10.0 miWSW (250°)18.4 mph27.6 mphPartly Cloudy
12:56 PM57.9 °F44.1 °F60 %30.06 in10.0 miWSW (250°)20.7 mph26.5 mphPartly Cloudy
1:56 PM59.0 °F43.0 °F55 %30.06 in10.0 miWSW (250°)19.6 mph29.9 mphPartly Cloudy
2:56 PM60.1 °F43.0 °F53 %30.05 in10.0 miWest (260°)25.3 mph32.2 mphScattered Clouds
3:56 PM59.0 °F45.0 °F60 %30.06 in10.0 miWest (260°)26.5 mph33.4 mphScattered Clouds
4:56 PM57.9 °F45.0 °F62 %30.05 in10.0 miWest (260°)27.6 mph35.7 mphScattered Clouds
5:56 PM55.0 °F46.0 °F72 %30.05 in10.0 miWest (260°)13.8 mph19.6 mphMostly Cloudy
6:56 PM55.0 °F46.0 °F72 %30.04 in10.0 miWest (260°)21.9 mph32.2 mphMostly Cloudy
7:13 PM55.4 °F46.4 °F72 %30.04 in10.0 miWest (260°)18.4 mph28.8 mphMostly Cloudy
7:56 PM54.0 °F46.9 °F77 %30.04 in10.0 miWest (270°)25.3 mph40.3 mphOvercast
8:56 PM53.1 °F46.9 °F80 %30.04 in10.0 miWest (260°)29.9 mph41.4 mphOvercast
9:56 PM53.1 °F46.9 °F80 %30.05 in10.0 miWest (270°)31.1 mph38.0 mphMostly Cloudy
10:00 PM53.6 °F46.4 °F77 %30.05 in10.0 miWest (270°)31.1 mph38.0 mphScattered Clouds
10:56 PM53.1 °F46.9 °F80 %30.06 in10.0 miWest (270°)32.2 mph39.1 mphMostly Cloudy
11:56 PM53.1 °F48.0 °F83 %30.07 in10.0 miWest (280°)26.5 mph38.0 mphOvercast
Hourly data recorded from KSFO, located miles away from San Francisco, California







STORIES FROM OUR PARTNERS